Weather Roundup
Issued by NWS Springfield, MO

Home | Current Version | Previous Version | Text Only | Print | Product List | Glossary On
Versions: 1 2 3 4 5 6 7 8 9 10 11 12 13 14 15 16 17 18 19 20 21 22 23 24 25 26 27 28 29 30 31 32 33 34 35 36 37 38 39 40 41 42 43 44 45 46 47 48 49 50
000
NZUS99 KSGF 300107
HRRSGF

HOURLY WEATHER
NATIONAL WEATHER SERVICE SPRINGFIELD MO
800 PM CDT FRI APR 29 2016

......SGF CWA......

CITY           SKY/WX    TMP DP  RH WIND       PRES   REMARKS
SPRINGFIELD    TSTM      60  57  89 E8        29.80R FOG
JOPLIN         HVY RAIN  59  58  96 N8        29.80R FOG
WEST PLAINS    CLOUDY    60  56  86 SE10G18   29.86R
ROLLA          CLOUDY    59  52  77 E12       29.87F
OSAGE BEACH    CLOUDY    57  46  67 NE8G16    29.89F THUNDER
BRANSON        LGT RAIN  57  57 100 E12G20    29.79R VSB 1/8

......SURROUNDING SGF CWA......

CITY           SKY/WX    TMP DP  RH WIND       PRES   REMARKS
CHANUTE        CLOUDY    58  53  84 E24G35    29.66S
PARSONS        CLOUDY    59  57  93 E10G30    29.68S
COFFEYVILLE    RAIN      60  58  92 E17G24    29.66F
EMPORIA        CLOUDY    52  50  93 NE20G30   29.71F
GROVE OK       TSTM      61  61 100 N9        29.73R
ROGERS AR      RAIN      61  61 100 E14       29.72R
SILOAM SPRINGS CLOUDY    64  55  72 SE13      29.71R
HARRISON AR    FOG       59  58  96 SE12      29.78F VSB 1
NEAR YELLVILLE CLOUDY   N/A N/A N/A SE6       29.77S

......KANSAS AND MISSOURI......

CITY           SKY/WX    TMP DP  RH WIND       PRES   REMARKS
KANSAS CTY INT CLOUDY    51  48  89 NE20      29.81F
DOWNTOWN KC    CLOUDY    54  50  86 E21G29    29.80F
COLUMBIA       LGT RAIN  60  52  74 NE14      29.93R
SEDALIA        LGT RAIN  58  54  86 E16G24    29.84F
ST JOSEPH      CLOUDY    51  48  89 E17G25    29.87F
ST LOUIS       CLOUDY    63  52  67 E10       29.97S
SPIRIT OF STL  CLOUDY    62  54  74 E10       29.94F
KIRKSVILLE     LGT RAIN  51  46  83 NE9       30.02R
WICHITA        CLOUDY    56  52  86 E20G26    29.66F
TOPEKA         LGT RAIN  53  49  86 NE17G26   29.78F
OLATHE         CLOUDY    52  50  93 NE17G30   29.81F

......TENNESSEE......

CITY           SKY/WX    TMP DP  RH WIND       PRES   REMARKS
MEMPHIS        CLOUDY    65  61  87 SE7       29.85S
NASHVILLE      CLOUDY    66  61  84 SE5       29.97R

......ARKANSAS.......

CITY           SKY/WX    TMP DP  RH WIND       PRES   REMARKS
FAYETTEVILLE   LGT RAIN  65  64  97 S13G21    29.71R FOG
FT SMITH       RAIN      66  63  90 E9        29.69R
LITTLE ROCK    TSTM      69  65  86 W14G22    29.81R

......OKLAHOMA.......

CITY           SKY/WX    TMP DP  RH WIND       PRES   REMARKS
TULSA          TSTM      66  65  96 E25G35    29.50F
PONCA CITY     LGT RAIN  59  56  89 E16       29.64R
MCALESTER      CLOUDY    69  65  86 SE6       29.58F
OKLAHOMA CITY  CLOUDY    62  61  96 N13       29.60R FOG

......IOWA............

CITY           SKY/WX    TMP DP  RH WIND       PRES   REMARKS
DES MOINES     CLOUDY    50  40  68 E10       30.03S
QUAD CITIES    CLOUDY    50  41  71 E10       30.08S

......ILLINOIS........

CITY           SKY/WX    TMP DP  RH WIND       PRES   REMARKS
QUINCY         MOCLDY    54  47  77 E9        30.01R
CHICAGO        CLOUDY    44  38  79 NE9       30.14R




USA.gov is the U.S. government's official web portal to all federal, state and local government web resources and services.